Location: Arpaise
(41.0333°N, 14.7333°E)
Time: 01:23:10
(UTC+00:00)

TSX-5 - Pass Details

Date: 05 July 2020
Orbit: 404 x 1328 km, 68.9° (Epoch: 11 August)

Event Time Altitude Azimuth Distance (km) Brightness Sun altitude
Rises 21:32:39 0° 336° (NNW) 2,466 8.7 -22.7°
Reaches altitude 10° 21:34:34 10° 339° (NNW) 1,661 7.4 -22.9°
Enters shadow 21:38:07 69° 54° (NE) 590 3.9 -23.1°
